YO6IKB-10 Weather Reports


time (UTC)temp
C
wind
direction
speed
KPH
gust
KPH
rain 1hr
cm
rain 24hr
cm
rain mn
cm
humidity
%
barometer
mb
20260503185026 11 225 0.0 3.2 0.00 0.00 0.00 45 1014.7
20260503184525 11 225 0.0 6.4 0.00 0.00 0.00 45 1014.6
20260503184025 11 225 3.2 3.2 0.00 0.00 0.00 45 1014.6
20260503183524 12 202 0.0 9.7 0.00 0.00 0.00 45 1014.7
20260503183024 12 225 0.0 6.4 0.00 0.00 0.00 44 1014.7
20260503182524 12 225 4.8 11.3 0.00 0.00 0.00 44 1014.6
20260503182023 12 225 3.2 8.0 0.00 0.00 0.00 44 1014.5
20260503181523 12 247 4.8 4.8 0.00 0.00 0.00 45 1014.5
20260503181023 12 247 3.2 6.4 0.00 0.00 0.00 44 1014.5
20260503180523 12 225 3.2 4.8 0.00 0.00 0.00 44 1014.5
20260503180022 12 225 0.0 3.2 0.00 0.00 0.00 44 1014.5
20260503175522 12 225 3.2 6.4 0.00 0.00 0.00 44 1014.6
20260503175022 12 247 1.6 6.4 0.00 0.00 0.00 43 1014.5
20260503174521 13 247 1.6 8.0 0.00 0.00 0.00 43 1014.5
20260503174021 13 247 1.6 6.4 0.00 0.00 0.00 43 1014.4
20260503173521 13 247 3.2 9.7 0.00 0.00 0.00 42 1014.5
20260503173020 13 292 1.6 6.4 0.00 0.00 0.00 42 1014.5
20260503172520 13 292 3.2 9.7 0.00 0.00 0.00 42 1014.4
20260503172020 13 292 1.6 9.7 0.00 0.00 0.00 42 1014.4
20260503171520 14 247 0.0 8.0 0.00 0.00 0.00 42 1014.4
20260503171019 14 292 1.6 9.7 0.00 0.00 0.00 42 1014.4
20260503170519 14 292 1.6 6.4 0.00 0.00 0.00 43 1014.5
20260503151012 20 315 6.4 8.0 0.00 0.00 0.00 35 1014.9
20260503150512 20 292 3.2 6.4 0.00 0.00 0.00 36 1014.9
20260503131005 14 22 16.1 16.1 0.00 0.00 0.00 38 1016.3
20260503130505 14 112 0.0 11.3 0.00 0.00 0.00 37 1016.3
20260503110458 12 0 3.2 9.7 0.00 0.00 0.00 41 1017.6
20260503090451 13 315 0.0 3.2 0.00 0.00 0.00 48 1018.7
20260503081448 11 0 1.6 6.4 0.00 0.00 0.00 50 1018.9
20260503080948 12 45 1.6 6.4 0.00 0.00 0.00 50 1018.9
20260503080447 12 337 0.0 4.8 0.00 0.00 0.00 57 1019.0
20260503072445 11 0 0.0 3.2 0.00 0.00 0.00 62 1019.0
20260503071945 11 45 0.0 3.2 0.00 0.00 0.00 62 1018.9
20260503071444 11 292 0.0 3.2 0.00 0.00 0.00 67 1018.9
20260503070944 10 315 3.2 3.2 0.00 0.00 0.00 65 1018.9
20260503070444 10 22 0.0 3.2 0.00 0.00 0.00 64 1018.9
20260503054939 7 22 0.0 0.0 0.00 0.00 0.00 72 1019.0
20260503054439 7 0 0.0 1.6 0.00 0.00 0.00 74 1018.9
20260503053939 7 0 0.0 1.6 0.00 0.00 0.00 75 1019.0
20260503053439 6 0 0.0 0.0 0.00 0.00 0.00 77 1018.8
20260503052938 6 0 0.0 0.0 0.00 0.00 0.00 77 1018.9
20260503052438 5 0 0.0 0.0 0.00 0.00 0.00 78 1018.9
20260503051938 5 0 0.0 0.0 0.00 0.00 0.00 78 1018.9
20260503051437 5 0 0.0 1.6 0.00 0.00 0.00 79 1018.8
20260503050937 5 292 0.0 0.0 0.00 0.00 0.00 79 1018.8
20260503050437 5 292 0.0 0.0 0.00 0.00 0.00 80 1018.8
20260503045936 5 292 0.0 0.0 0.00 0.00 0.00 81 1018.8
20260503045436 5 292 0.0 0.0 0.00 0.00 0.00 81 1018.8
20260503044936 5 292 0.0 0.0 0.00 0.00 0.00 82 1018.8
20260503044436 5 292 0.0 0.0 0.00 0.00 0.00 82 1018.8
20260503043935 5 292 0.0 0.0 0.00 0.00 0.00 82 1018.7
20260503043435 5 292 0.0 0.0 0.00 0.00 0.00 83 1018.7
20260503042935 5 292 0.0 0.0 0.00 0.00 0.00 83 1018.7
20260503042434 4 292 0.0 0.0 0.00 0.00 0.00 84 1018.7
20260503041934 3 292 0.0 0.0 0.00 0.00 0.00 85 1018.6
20260503041434 3 292 0.0 0.0 0.00 0.00 0.00 85 1018.5
20260503040934 3 292 0.0 0.0 0.00 0.00 0.00 85 1018.5
20260503040433 3 292 0.0 0.0 0.00 0.00 0.00 86 1018.4
20260503035933 3 292 0.0 0.0 0.00 0.00 0.00 86 1018.4
20260503035433 2 292 0.0 0.0 0.00 0.00 0.00 87 1018.4
20260503034932 2 292 0.0 0.0 0.00 0.00 0.00 87 1018.4
20260503034432 1 292 0.0 0.0 0.00 0.00 0.00 87 1018.3
20260503033932 1 292 0.0 0.0 0.00 0.00 0.00 87 1018.3
20260503033432 0 292 0.0 0.0 0.00 0.00 0.00 87 1018.2
20260503032931 0 292 0.0 0.0 0.00 0.00 0.00 87 1018.2
20260503032431 0 292 0.0 0.0 0.00 0.00 0.00 87 1018.2
20260503031931 0 292 0.0 0.0 0.00 0.00 0.00 87 1018.2
20260503031430 0 292 0.0 0.0 0.00 0.00 0.00 87 1018.1
20260503030930 0 292 0.0 0.0 0.00 0.00 0.00 87 1018.1
20260503030430 0 292 0.0 0.0 0.00 0.00 0.00 87 1018.1
20260503025929 0 292 0.0 0.0 0.00 0.00 0.00 87 1018.0
20260503025429 0 292 0.0 0.0 0.00 0.00 0.00 87 1018.0
20260503024929 0 292 0.0 0.0 0.00 0.00 0.00 87 1018.0
20260503024429 0 292 0.0 0.0 0.00 0.00 0.00 87 1018.0
20260503023928 0 292 0.0 0.0 0.00 0.00 0.00 87 1018.0
20260503023428 0 292 0.0 0.0 0.00 0.00 0.00 87 1018.0
20260503022928 0 292 0.0 0.0 0.00 0.00 0.00 87 1017.9
20260503022427 0 292 0.0 0.0 0.00 0.00 0.00 87 1018.0
20260503021927 0 292 0.0 0.0 0.00 0.00 0.00 87 1017.9
20260503021427 0 292 0.0 0.0 0.00 0.00 0.00 87 1017.9
20260503020927 0 292 0.0 0.0 0.00 0.00 0.00 86 1017.9
20260503020426 0 292 0.0 0.0 0.00 0.00 0.00 86 1017.9
20260503015926 0 292 0.0 0.0 0.00 0.00 0.00 86 1017.9
20260503015426 0 292 0.0 0.0 0.00 0.00 0.00 86 1017.9
20260503014925 0 292 0.0 0.0 0.00 0.00 0.00 86 1017.9
20260503014425 0 292 0.0 0.0 0.00 0.00 0.00 86 1017.9
20260503013925 0 292 0.0 0.0 0.00 0.00 0.00 86 1017.9
20260503013424 0 292 0.0 0.0 0.00 0.00 0.00 86 1017.9
20260503012924 0 292 0.0 0.0 0.00 0.00 0.00 86 1017.9
20260503012424 1 292 0.0 0.0 0.00 0.00 0.00 86 1017.9
20260503011924 1 292 0.0 0.0 0.00 0.00 0.00 86 1017.9
20260503011423 1 292 0.0 0.0 0.00 0.00 0.00 86 1018.0
20260503010923 1 292 0.0 0.0 0.00 0.00 0.00 86 1018.0
20260503010423 1 292 0.0 0.0 0.00 0.00 0.00 86 1017.9
20260503005922 1 292 0.0 0.0 0.00 0.00 0.00 85 1018.0
20260503005422 1 292 0.0 0.0 0.00 0.00 0.00 85 1017.9
20260503004922 1 292 0.0 0.0 0.00 0.00 0.00 85 1017.9
20260503004422 1 292 0.0 0.0 0.00 0.00 0.00 85 1017.9
20260503003921 1 292 0.0 0.0 0.00 0.00 0.00 85 1018.0
20260503003421 1 292 0.0 0.0 0.00 0.00 0.00 85 1018.0
20260503002921 1 292 0.0 0.0 0.00 0.00 0.00 85 1017.9
20260503002420 1 292 0.0 0.0 0.00 0.00 0.00 85 1018.0
20260503001920 1 292 0.0 0.0 0.00 0.00 0.00 85 1018.0
20260503001420 1 292 0.0 3.2 0.00 0.00 0.00 85 1018.0
20260503000919 1 292 0.0 0.0 0.00 0.00 0.00 85 1018.0
20260503000419 1 292 0.0 0.0 0.00 0.00 0.00 85 1018.1
20260502235919 1 292 0.0 0.0 0.00 0.00 0.00 85 1018.1
20260502235419 1 292 0.0 1.6 0.00 0.00 0.00 85 1018.1
20260502234918 1 292 0.0 0.0 0.00 0.00 0.00 84 1018.0
20260502234418 1 292 0.0 1.6 0.00 0.00 0.00 84 1018.1
20260502233918 1 292 0.0 3.2 0.00 0.00 0.00 83 1018.1
20260502233417 1 292 0.0 3.2 0.00 0.00 0.00 83 1018.1
20260502232917 2 292 0.0 3.2 0.00 0.00 0.00 83 1018.1
20260502232417 2 292 0.0 0.0 0.00 0.00 0.00 82 1018.0
20260502231917 2 292 0.0 3.2 0.00 0.00 0.00 82 1017.9
20260502231416 2 225 0.0 0.0 0.00 0.00 0.00 82 1017.9
20260502230916 2 225 0.0 0.0 0.00 0.00 0.00 82 1017.9
20260502230416 2 225 0.0 0.0 0.00 0.00 0.00 82 1017.9
20260502225915 2 225 0.0 0.0 0.00 0.00 0.00 82 1018.1
20260502225415 2 225 0.0 0.0 0.00 0.00 0.00 82 1018.1
20260502224915 2 225 0.0 0.0 0.00 0.00 0.00 82 1018.2
20260502224415 2 225 0.0 0.0 0.00 0.00 0.00 82 1018.3
20260502223914 2 225 0.0 0.0 0.00 0.00 0.00 82 1018.3
20260502223414 2 225 0.0 0.0 0.00 0.00 0.00 82 1018.3
20260502222914 2 225 0.0 0.0 0.00 0.00 0.00 82 1018.4
20260502222413 3 225 0.0 0.0 0.00 0.00 0.00 82 1018.3
20260502221913 3 292 0.0 0.0 0.00 0.00 0.00 83 1018.4
20260502221413 3 315 0.0 0.0 0.00 0.00 0.00 83 1018.4
20260502220912 3 292 0.0 0.0 0.00 0.00 0.00 83 1018.4
20260502220412 3 292 0.0 0.0 0.00 0.00 0.00 84 1018.4
20260502215912 3 292 0.0 0.0 0.00 0.00 0.00 83 1018.4
20260502215412 3 292 0.0 0.0 0.00 0.00 0.00 83 1018.5
20260502214911 3 292 0.0 0.0 0.00 0.00 0.00 84 1018.6
20260502214411 3 292 0.0 0.0 0.00 0.00 0.00 84 1018.5
20260502213911 3 292 0.0 0.0 0.00 0.00 0.00 84 1018.6
20260502213410 3 292 0.0 0.0 0.00 0.00 0.00 84 1018.5
20260502212910 3 292 0.0 0.0 0.00 0.00 0.00 84 1018.4
20260502212410 3 292 0.0 0.0 0.00 0.00 0.00 84 1018.4
20260502211910 3 292 0.0 0.0 0.00 0.00 0.00 84 1018.5
20260502211409 3 292 0.0 0.0 0.00 0.00 0.00 84 1018.6
20260502210909 3 292 0.0 0.0 0.00 0.00 0.00 84 1018.7
20260502210409 3 292 0.0 0.0 0.00 0.00 0.00 83 1018.6
20260502205908 3 292 0.0 0.0 0.00 0.00 0.00 83 1018.6
20260502205408 3 292 0.0 0.0 0.00 0.00 0.00 82 1018.6
20260502204908 3 292 0.0 0.0 0.00 0.00 0.00 83 1018.6
20260502204407 3 292 0.0 0.0 0.00 0.00 0.00 82 1018.6
20260502203907 4 292 0.0 0.0 0.00 0.00 0.00 82 1018.6
20260502203407 4 292 0.0 0.0 0.00 0.00 0.00 82 1018.5
20260502202907 4 292 0.0 0.0 0.00 0.00 0.00 82 1018.5
20260502202406 4 292 0.0 0.0 0.00 0.00 0.00 82 1018.5
20260502201906 4 292 0.0 0.0 0.00 0.00 0.00 82 1018.6
20260502201406 4 292 0.0 0.0 0.00 0.00 0.00 82 1018.6
20260502200905 5 292 0.0 0.0 0.00 0.00 0.00 81 1018.6
20260502200405 5 292 0.0 0.0 0.00 0.00 0.00 80 1018.6
20260502195905 5 292 0.0 0.0 0.00 0.00 0.00 80 1018.5
20260502195405 5 292 0.0 0.0 0.00 0.00 0.00 81 1018.5
20260502194904 5 292 0.0 0.0 0.00 0.00 0.00 81 1018.6
20260502194404 5 292 0.0 0.0 0.00 0.00 0.00 81 1018.5
20260502193904 5 292 0.0 0.0 0.00 0.00 0.00 81 1018.7
20260502193403 5 292 0.0 0.0 0.00 0.00 0.00 80 1018.6
20260502192903 5 292 0.0 0.0 0.00 0.00 0.00 80 1018.7
20260502192403 5 292 0.0 1.6 0.00 0.00 0.00 80 1018.6
20260502191902 5 247 0.0 0.0 0.00 0.00 0.00 80 1018.6
20260502191402 5 247 0.0 0.0 0.00 0.00 0.00 80 1018.7
20260502190902 5 247 0.0 0.0 0.00 0.00 0.00 80 1018.6
20260502190402 5 247 0.0 0.0 0.00 0.00 0.00 80 1018.5
20260502185901 5 247 0.0 0.0 0.00 0.00 0.00 79 1018.5
20260502185401 5 247 0.0 0.0 0.00 0.00 0.00 79 1018.4